www.pogodaiklimat.ru

Погода и климат >> Архив погоды >> Мексика >> Pachuca


ПОГОДА в Pachuca

  • Прогноз погоды в Pachuca
  • Монитор погоды в Pachuca
  • Климат города

АРХИВ ПОГОДЫ в Pachuca

Время (UTC), дата Ветер
(напр.,м/с)
 
Видим.   Явления Облачность Т
(С)
Тd
(С)
f
(%)
Тe
(С)
Тes
(С)
Комфортность P
(гПа)
Po
(гПа)
Тmin
(С)
Tmax
(С)
R
(мм)
R24
(мм)
S
(см)
15 18.06 З 1 4000 м дымка туман 10/6 400 м
[St As op]
+16.0 +13.1 83 +17 +18 1010.6 770.2
18 18.06 штиль 0 6000 м мгла 10/6 1000 м
[Cu med, cong Ac trans]
+21.4 +13.3 60 +24 +29 комфорт 1009.8 769.8 +14.6 +21.8
21 18.06 ЮЗ 2 5000 м мгла 9/9 1500 м
[Sc]
+19.8 +14.2 70 +22 +24 комфорт 1007.4 768.7
00 19.06 ЮЗ 2 5000 м слабая морось {дождь} 10/10 600 м
[Frnb]
+14.8 +14.0 95 +14 +14 1008.2 769.2 11
03 19.06 З 2 3000 м слабая морось 10/4 150 м
[Frnb As op]
+14.2 +13.0 92 +14 +14 1010.2 770.5 2
06 19.06 штиль 0 3000 м мгла {морось} 9/4 100 м
[Frnb As op]
+13.0 +12.1 94 +12 +12 1012.2 769.5 3
09 19.06 З 1 3000 м слабая морось 10/6 120 м
[Frnb As op]
+13.4 +12.5 94 +13 +13 1011.8 769.6 2
12 19.06 штиль 0 3000 м мгла {морось} 9/9 100 м
[]
+13.0 +12.1 94 +12 +12 1012.2 769.5 3
15 19.06 З 1 6000 м мгла 9/0
[Ac lent]
+15.2 +11.2 77 +16 +19 1013.4 770.4
18 19.06 З 2 6000 м мгла 10/8 960 м
[Cu Sc Ac lent]
+19.8 +12.1 61 +22 +23 комфорт 1011.7 770.0 +12.8 +20.5
21 19.06 Ю 2 6000 м мгла 9/8 960 м
[Cu Sc Ac lent]
+21.5 +14.9 66 +25 +26 комфорт 1007.8 768.4
00 20.06 ЮВ 2 5000 м слабая морось 9/9 600 м
[Frnb]
+16.5 +14.6 89 +17 +17 1006.4 768.1 2
03 20.06 С 1 3000 м слабая морось {ливн. осадки} туман 10/10 360 м
[Frnb]
+14.6 +13.4 93 +15 +15 1008.7 770.1 16
06 20.06 СЗ 1 3000 м слабая морось {ливн. осадки} 9/9 300 м
[Frnb]
+14.4 +13.5 94 +15 +15 1009.9 770.4 21
09 20.06 С 1 4000 м слабая морось 10/10 360 м
[Frnb]
+14.0 +13.1 94 +14 +14 1010.6 769.6 2
12 20.06 С 1 4500 м мгла {морось} 9/9 300 м
[Frnb]
+13.1 +11.9 92 +13 +13 1011.8 769.6 2
15 20.06 СЗ 1 5000 м мгла туман 10/3 480 м
[Frnb As op]
+14.6 +10.9 78 +15 +17 1012.0 769.6
18 20.06 СЗ 2 6000 м мгла 10/4 1000 м
[Frnb As op]
+11.2 -4 -1 1011.7 770.0 +12.4 +19.4
21 20.06 ЮЗ 2 5000 м слабая морось 10/10 930 м
[Frnb]
+16.8 +14.8 88 +17 +17 1010.0 769.4 0.8
00 21.06 ЮЗ 2 5000 м мгла {морось} 9/9 600 м
[Frnb]
+17.8 +13.9 78 +18 +18 1008.1 768.7 1
03 21.06 С 1 4000 м мгла {морось} 9/9 720 м
[Frnb]
+15.4 +14.2 93 +16 +16 1009.5 770.0 1
06 21.06 ЮЗ 1 4000 м мгла {морось} 9/9 600 м
[Frnb]
+14.2 +12.7 91 +14 +14 1011.0 770.6 1
09 21.06 С 1 3000 м слабая морось туман 10/10 450 м
[Frnb]
+13.0 +11.9 93 +13 +13 1010.9 769.7 2
12 21.06 СЗ 7 3000 м слабая морось 10/10 300 м
[Frnb]
+12.0 +11.3 95 +9 +9 1012.8 770.2 3
15 21.06 СЗ 1 6000 м слабая морось 9/0
[Ac lent]
+17.2 +11.2 68 +18 +21 1012.7 770.0 0.6
18 21.06 С 1 6000 м мгла 9/4 1000 м
[Cu Sc Ac lent]
+21.0 +11.1 53 +24 +29 комфорт 1011.0 769.7 0.6
21 21.06 З 2 6000 м мгла 8/8 1080 м
[Cu Sc]
+21.5 +13.5 60 +24 +27 комфорт 1007.5 768.6
00 22.06 ЮЗ 2 5000 м слабая морось 9/9 600 м
[Frnb]
+17.0 +13.3 79 +17 +17 1005.3 768.2 0.5
03 22.06 З 1 4000 м мгла 6/0
[As op]
+16.0 +12.1 78 +17 +17 1008.1 769.8
06 22.06 СЗ 1 4000 м мгла 6/0
[As op]
+15.2 +11.9 81 +16 +16 1009.2 770.5 +11.8 +24.8
09 22.06 СЗ 1 4000 м мгла 3/0
[As trans]
+13.2 +11.4 89 +13 +13 1010.7 770.1
12 22.06 З 1 4000 м мгла 3/3 120 м
[Frnb]
+11.4 +10.5 94 +11 +11 1012.7 770.3 +11.2 +24.8
15 22.06 СЗ 2 6000 м мгла 6/0
[Ac trans Ci]
+17.8 +11.5 67 +18 +25 1013.6 771.1
18 22.06 З 3 6000 м мгла 8/8 1500 м
[Cu med, cong]
+23.4 +11.3 47 +26 +29 жарко 1010.9 770.3 +11.2 +24.5
21 22.06 ЮЗ 2 5000 м слабая морось 9/9 930 м
[Frnb]
+19.2 +14.0 72 +21 +23 комфорт 1006.9 768.8 0.0
00 23.06 Ю 3 6000 м мгла 8/8 1000 м
[Cu Sc]
+19.3 +14.6 74 +21 +21 комфорт 1004.7 768.3 0.0
03 23.06 СВ 1 4000 м мгла 6/6 1050 м
[Sc]
+16.8 +12.0 73 +18 +18 1004.9 768.6
06 23.06 СВ 1 4000 м мгла {морось} 8/8 1000 м
[Sc]
+14.7 +11.0 78 +15 +15 1010.8 772.1 0.4
09 23.06 С 1 4000 м мгла 6/6 1300 м
[Sc]
+13.2 +11.2 88 +13 +13 1011.5 770.8
12 23.06 СВ 1 5000 м мгла 6/6 1080 м
[Sc]
+13.4 +10.6 83 +14 +14 1013.2 771.1 +13.2 +26.0
15 23.06 СЗ 1 6000 м мгла 4/4 800 м
[Cu Sc]
+18.2 +11.9 67 +20 +26 1013.8 771.4
18 23.06 З 1 6000 м мгла 4/4 1500 м
[Cu med, cong]
+23.0 +10.8 46 +25 +40 комфорт 1011.8 771.0 +13.2 +24.0
21 23.06 СЗ 1 6000 м мгла 8/8 1470 м
[Cu Sc]
+22.4 +10.4 47 +24 +28 комфорт 1006.5 768.6
00 24.06 З 3 5000 м мгла {морось, дождь} 6/6 200 м
[Cu Sc]
+16.2 +13.9 86 +16 +16 1005.0 768.1 5
12 24.06 СЗ 1 4500 м мгла 6/0
[As op]
+10.9 +10.4 97 +10 +10 1012.9 770.5 +10.7 +25.6
15 24.06 СЗ 1 6000 м мгла 6/6 1200 м
[Sc]
+16.6 +12.1 75 +17 +22 1013.9 771.0
18 24.06 ЮЗ 2 6000 м мгла 5/5 1300 м
[Cu med, cong]
+22.0 +12.0 53 +24 +35 комфорт 1010.6 770.4 +10.7 +23.2
21 24.06 ЮЗ 2 6000 м мгла 6/6 1350 м
[Cu med, cong]
+23.4 +6.4 33 +24 +30 комфорт 1006.3 768.6
00 25.06 СЗ 1 5000 м мгла 10/10 600 м
[Frnb]
+18.0 +11.4 65 +19 +19 1007.1 769.8 +10.7 +25.4

 

Местоположение метеостанции Pachuca (Мексика): широта 20.13 долгота -98.75 высота над уровнем моря 2435 м.

В архиве по умолчанию представлена погода в Pachuca за последнюю неделю. Архивные данные за месяц целиком и за предыдущие месяцы, начиная с января 2011 года, Вы можете получить, выбрав интересующий диапазон дат из раскрывающегося списка и нажав кнопку "Ввод!".


*Определитесь, кто Вы:
робот инопланетянин человек

Внимание! Время в таблицах - всемирное. Для получения местного времени необходимо прибавить поправку, которая в Pachuca равна -6 ч.

Смотрите также архив погоды в соседних городах и на ближайших метеорологических станциях:

Погода в Tulancingo (Мексика) (40 км)
Погода в Mexico City (Мексика) (93 км)
Погода в Institute of Geography (Мексика) (101 км)
Погода в Tlaxcala (Мексика) (104 км)
Погода в Tlaxcala Airport (Мексика) (106 км)
Погода в Matlapa (Мексика) (133 км)
Погода в Puebla (Мексика) (135 км)
Погода в Toluca (Мексика) (136 км)
Погода в Cuernavaca (Мексика) (148 км)
Погода в Zacatepec (Мексика) (165 км)

Пояснения к столбцам:

Ветер - указаны скорость ветра в м/с - средняя за 10 мин, порывы в срок и между сроками (в фигурных скобках) и направление, откуда дует ветер: С - северный, СВ - северо-восточный, В - восточный, ЮВ - юго-восточный, Ю - южный, ЮЗ - юго-западный, З - западный, СЗ - северо-западный.
Видимость - горизонтальная дальность видимости в метрах или километрах. При видимости от 1 до 10 км при отсутствии осадков обычно наблюдается дымка, при ухудшении видимости до 1 км и менее - туман. В сухую погоду видимость может ухудшаться дымом, пылью или мглою.
Явления - указаны атмосферные явления, наблюдавшиеся в срок или в последний час перед сроком; фигурными скобками обозначены явления, наблюдавшиеся между сроками (за 1-3 часа до срока); квадратными скобками обозначены град или гололедные отложения с указанием их диаметра в мм.
Облачность - указаны через наклонную черту общая и нижняя облачность в баллах и высота нижней границы облаков в метрах; квадратными скобками обозначены формы облаков: Ci - перистые, Cs - перисто-слоистые, Cc - перисто-кучевые, Ac - высококучевые, As - высокослоистые, Sc - слоисто-кучевые, Ns - слоисто-дождевые, Cu - кучевые, Cb - кучево-дождевые. Подробнее классификацию облаков см. в Атласе облаков (PDF).
T - Температура воздуха - температура, измеренная на высоте 2 м над землей.
Td - Температура точки росы - температура, при понижении до которой содержащийся в воздухе водяной пар достигнет насыщения.
f - Относительная влажность воздуха - влажноcть воздуха, измеренная на высоте 2 м над землей.
Te - Эффективная температура - температура, которую ощущает одетый по сезону человек в тени. Характеристика душности погоды. При расчете учитывается влияние влажности воздуха и скорости ветра на теплоощущения человека.
Tes - Эффективная температура на солнце - температура, которую ощущает человек, с поправкой на солнечный нагрев. Характеристика знойности погоды. Зависит от высоты солнца над горизонтом, облачности и скорости ветра. Ночью, в пасмурную погоду, а также при ветре 12 м/с и более поправка равна нулю.
P - Атмосферное давление - приведенное к уровню моря атмосферное давление.
Po - Атмосферное давление - измеренное на уровне метеостанции атмосферное давление.
Tmin - Минимальная температура - минимум температуры воздуха на высоте 2 м над землей.
Tmax - Максимальная температура - максимум температуры воздуха на высоте 2 м над землей.
R - Количество осадков - Количество выпавших осадков за период времени, мм. При наведении курсора мыши на число - период времени, за который выпало указанное количество осадков.
R24 - Количество осадков - Количество выпавших осадков за 24 часа, мм.
S - Снежный покров - Высота снежного покрова, см. При наведении курсора мыши на число - состояние снежного покрова и степень покрытия местности в баллах.